Cloud_Cover
1 1 2 0 5 4 10 11 21 49 83 77 97 95 96 91 76 90 99 100 100 100 100 26 11 25 2 0 0 16 100 100 100 100 100 100 98 96 100 100 100 100 100
0 5 1 0 0 0 0 2 7 16 30 80 88 100 100 100 100 100 100 100 100 100 100 100 98 14 2 0 0 0 100 100 100 100 100 100 100 100 98 100 100 100 100
5 5 5 2 5 1 4 5 5 2 10 23 88 94 100 100 100 100 100 100 100 100 100 100 100 100 7 0 0 54 91 100 100 100 100 100 100 100 100 100 100 100 99
5 5 5 5 5 5 5 5 5 1 1 11 51 91 85 100 100 100 100 100 100 100 100 99 77 100 100 9 7 44 100 100 100 100 100 100 100 100 100 100 63 100 100
5 5 5 5 5 5 5 2 5 0 2 2 95 78 15 83 100 100 100 100 100 100 100 100 96 34 85 39 91 3 100 100 100 100 100 100 100 100 100 6 7 47 100
5 5 5 5 5 5 3 0 2 3 7 28 51 100 99 57 100 100 100 100 100 100 100 100 100 100 33 0 8 5 100 100 100 100 100 100 100 100 89 4 5 5 100
5 5 5 5 5 8 5 22 5 3 0 4 5 98 100 100 71 99 100 100 100 100 100 100 100 100 50 48 25 4 46 100 100 100 100 100 99 100 5 9 24 100 100
5 5 5 5 2 5 8 97 82 10 9 5 13 67 100 97 5 57 100 100 100 100 100 100 100 100 99 68 66 60 75 100 100 100 100 100 97 98 80 61 93 100 100
5 5 5 5 2 4 3 95 100 33 6 4 5 68 100 100 11 19 100 100 100 100 100 100 100 100 100 100 32 58 100 100 100 100 100 100 100 100 100 100 100 100 100
5 5 5 5 5 17 5 78 100 52 19 5 5 42 100 98 71 76 99 100 100 100 100 100 100 100 100 86 84 100 100 100 100 100 100 100 100 100 100 100 100 100 77
5 5 5 5 5 6 29 98 52 100 8 5 5 5 18 42 100 100 99 100 100 100 100 100 100 100 100 100 100 100 100 100 100 100 100 70 100 100 100 100 100 100 100
5 5 5 5 5 5 7 62 26 28 6 5 5 5 5 100 84 100 100 100 100 100 100 100 100 100 100 100 100 100 100 100 100 100 100 100 100 100 100 100 100 100 100
5 5 5 5 5 5 5 5 5 5 5 3 5 5 94 100 100 100 100 100 92 100 100 100 100 100 100 100 100 100 100 100 100 100 100 100 100 100 100 100 100 100 100
5 5 5 5 4 5 5 5 5 5 3 0 0 5 16 100 100 100 100 100 100 100 100 100 100 100 100 100 100 100 100 100 100 100 100 100 100 100 100 100 100 100 100
16 9 5 5 5 5 5 5 5 5 0 0 1 77 96 100 100 100 100 100 100 100 100 100 100 100 100 100 100 100 100 100 100 100 100 100 100 100 100 100 100 100 100
75 80 9 5 5 5 5 5 5 5 1 0 4 93 70 100 100 100 100 100 100 100 100 100 100 100 100 100 100 100 100 100 100 100 100 100 100 100 100 100 100 100 100
100 89 65 78 29 5 12 48 5 5 5 5 10 60 100 100 100 100 100 100 100 100 100 100 100 100 100 100 100 100 100 100 100 100 100 100 100 100 100 100 100 100 100
100 94 100 72 90 58 33 76 79 37 8 46 8 52 100 100 100 100 100 100 100 100 100 100 100 100 100 100 100 100 100 100 100 100 100 100 100 100 100 100 100 100 100
100 54 100 83 62 92 97 84 96 100 66 22 5 100 100 100 100 100 100 100 100 100 100 100 100 100 100 100 100 100 100 100 100 100 100 100 100 100 100 100 100 100 100
100 94 39 13 20 79 100 100 100 100 83 74 63 26 98 100 100 100 100 100 100 100 100 100 100 100 100 100 100 100 100 100 100 100 100 100 100 100 100 100 100 100 100
100 100 89 100 88 77 100 100 100 100 100 100 74 4 24 100 100 100 100 100 100 100 100 100 100 100 100 100 100 100 100 100 100 100 100 100 100 100 100 100 100 100 100
100 98 100 100 80 84 81 84 100 100 100 98 17 3 2 45 99 100 100 100 100 100 100 100 100 100 100 100 100 100 100 100 100 100 100 100 100 100 100 100 100 100 100
63 100 91 91 100 98 99 100 99 100 98 33 5 1 3 5 55 75 100 100 100 100 100 100 100 100 100 100 100 100 100 100 100 100 100 100 100 100 100 100 100 100 100
99 95 100 83 100 88 100 100 97 91 76 15 5 5 5 5 5 7 56 100 100 99 91 100 100 100 100 100 100 100 100 100 93 93 99 100 100 100 100 100 100 100 100
33 95 90 100 100 98 100 100 100 95 90 5 5 6 6 5 14 6 5 5 26 94 10 92 98 100 100 100 100 100 100 100 100 100 100 100 100 100 100 100 100 100 100
82 100 99 100 100 94 100 90 100 98 81 5 42 66 58 76 69 46 51 58 7 11 5 9 78 96 100 100 100 100 100 100 99 100 94 99 100 100 100 100 100 100 100